Simultaneous Nadir Overpasses (SNOs) Predictions

Prediction of SNOs between AQUA and METOP-B Satellite Orbit:

Table of predicted SNOs for the next 14.0 days since TLE Epoch: 1/7/2023
Index Date (AQUA) Time (AQUA) Lat,Lon (AQUA) SZA (AQUA ) Date (METOP-B) Time (METOP-B) Lat,Lon (METOP-B) SZA (METOP-B ) Distance(km) Time Diff (sec)
1 01/07/2023 03:53:19 -74.40, -63.61 83.18 01/07/2023 03:54:31 -74.43, -62.93 83.18 20.72 72
2 01/09/2023 20:57:58 74.15,-139.19 96.20 01/09/2023 20:56:56 74.13,-139.26 96.20 2.77 62
3 01/09/2023 21:47:24 -74.21, 28.32 83.75 01/09/2023 21:47:36 -74.21, 28.27 83.74 1.64 12
4 01/09/2023 22:36:59 74.65,-165.12 96.73 01/09/2023 22:38:07 74.65,-163.25 96.67 54.91 68
5 01/12/2023 15:41:30 -74.17, 119.90 84.21 01/12/2023 15:40:36 -74.19, 119.95 84.18 2.41 54
6 01/12/2023 16:30:57 74.21, -72.55 95.84 01/12/2023 16:31:15 74.23, -72.60 95.86 2.85 18
7 01/15/2023 10:25:03 74.17, 19.03 95.32 01/15/2023 10:24:16 74.19, 19.05 95.35 2.03 47
8 01/15/2023 11:14:29 -74.23,-173.45 84.63 01/15/2023 11:14:57 -74.23,-173.53 84.63 2.61 28
9 01/18/2023 05:08:34 -74.19, -81.85 85.20 01/18/2023 05:07:58 -74.18, -81.89 85.19 1.20 36
10 01/18/2023 05:58:02 74.28, 85.57 94.90 01/18/2023 05:58:36 74.27, 85.65 94.89 2.99 34
11 01/20/2023 23:52:04 74.19, 177.29 94.23 01/20/2023 23:51:36 74.21, 177.26 94.26 2.60 28
12 01/21/2023 00:41:30 -74.24, -15.19 85.73 01/21/2023 00:42:17 -74.26, -15.30 85.71 3.74 47



Historial Predications of SNOs between AQUA and METOP-B
